Location: Advent Pentecost Church
(32.7757°N, 96.7408°W)
Time: 06:48:26
(UTC+00:00)

N. Korean satellite - Pass Details

Date: 27 October 2021
Orbit: 447 x 495 km, 97.3° (Epoch: 30 November)

Event Time Altitude Azimuth Distance (km) Brightness Sun altitude
Rises 12:00:28 0° 2° (N) 2,577 10.2 -9.1°
Reaches altitude 10° 12:02:38 10° 354° (N) 1,686 9.1 -8.7°
Maximum altitude 12:06:01 39° 285° (WNW) 747 7.0 -8.0°
Drops below altitude 10° 12:09:21 10° 216° (SW) 1,652 9.0 -7.3°
Sets 12:11:28 0° 208° (SSW) 2,517 10.0 -6.8°
